Regional Weather Roundup
Issued by NWS Upton, NY

Current Version | Previous Version | Graphics & Text | Print | Product List | Glossary Off
Versions: 1 2 3 4 5 6 7 8 9 10 11 12 13 14 15 16 17 18 19 20 21 22 23 24 25 26 27 28 29 30 31 32 33 34 35 36 37 38 39 40 41 42 43 44 45 46 47 48 49 50

000
ASUS41 KOKX 272104
RWROKX

REGIONAL WEATHER ROUNDUP
NATIONAL WEATHER SERVICE NEW YORK NY
500 PM EDT THU AUG 27 2015

NOTE: "FAIR" INDICATES FEW OR NO CLOUDS BELOW 12,000 FEET WITH NO
SIGNIFICANT WEATHER AND/OR OBSTRUCTIONS TO VISIBILITY.

NYZ071-072-176-178-NJZ106-104-272200-
NEW YORK CITY METRO AREA


CITY           SKY/WX    TMP DP  RH WIND       PRES   REMARKS
CENTRAL PARK   CLOUDY    78  51  38 VRB3      30.07R
LAGUARDIA APRT PTSUNNY   78  54  43 NW15      30.03R
KENNEDY INTL   PTSUNNY   80  51  36 W10G17    30.04R
NEWARK/LIBERTY PTSUNNY   81  52  36 NW16G23   30.04S
BRNX BOT. GARD   N/A     75  52  43 NW3       30.07R
TETERBORO      CLOUDY    77  52  41 NW12      30.03R
$$

NYZ177-179-078>081-272200-
LONG ISLAND NEW YORK

CITY           SKY/WX    TMP DP  RH WIND       PRES   REMARKS
FARMINGDALE    FAIR      81  53  37 NW9       30.03S
ISLIP          PTSUNNY   80  52  37 NW13      30.01S
SHIRLEY        FAIR      81  53  37 NW10      30.02S
WESTHAMPTON    PTSUNNY   78  58  49 SW13      30.03S
MONTAUK POINT    N/A     79  59  50 W7        30.03R
$$

NYZ052-065-067-272200-
HUDSON VALLEY

CITY           SKY/WX    TMP DP  RH WIND       PRES   REMARKS
WHITE PLAINS   PTSUNNY   76  53  44 W12       30.05R
NEWBURGH       MOSUNNY   73  57  56 W15       30.06S
MONTGOMERY     FAIR      75  55  49 W8        30.05F
POUGHKEEPSIE   PTSUNNY   76  53  44 NW6       30.03S
ALBANY         PTSUNNY   72  56  57 W14       30.04S
$$

NJZ001-105-106-008-010-013-015-019>022-104-272200-
NEW JERSEY

CITY           SKY/WX    TMP DP  RH WIND       PRES   REMARKS
NEWARK/LIBERTY PTSUNNY   81  52  36 NW16G23   30.04S
TETERBORO      CLOUDY    77  52  41 NW12      30.03R
CALDWELL       CLOUDY    76  53  44 NW7       30.06R
MORRISTOWN     PTSUNNY   77  55  47 W8        30.06S
SOMERVILLE     CLOUDY    76  52  43 NW7       30.05R
SUSSEX         CLOUDY    71  54  54 N5        30.08R
ANDOVER          N/A     71  56  58 N6        30.08S
TRENTON        CLOUDY    79  54  41 N13       30.06R
MILLVILLE      CLOUDY    78  55  44 NW7       30.06S
ATLANTIC CITY  CLOUDY    79  52  38 W6        30.05S
WRIGHTSTOWN    PTSUNNY   78  55  45 NW9       30.03S
TOMS RIVER     FAIR      79  54  41 NW5       30.05S
BELMAR         FAIR      79  54  41 NW10      30.05R
$$

PAZ047>061-062-071-272200-
EASTERN PENNSYLVANIA

CITY           SKY/WX    TMP DP  RH WIND       PRES   REMARKS
PHILADELPHIA   PTSUNNY   79  52  38 NW13G18   30.07R
ALLENTOWN      CLOUDY    75  55  49 N10       30.08S
SCRANTON       CLOUDY    70  52  52 W5        30.10F
$$

CTZ002-004>006-009-010-012-RIZ004-006-007-MAZ004-011-015-272200-
SOUTHERN NEW ENGLAND
 IN CT

CITY           SKY/WX    TMP DP  RH WIND       PRES   REMARKS
BRADLEY INTL   FAIR      74  55  51 NW6       30.01S
HARTFORD       FAIR      78  53  41 VRB5      30.01F
DANBURY        PTSUNNY   76  54  46 W6        30.05F
WTRBRY/OXFORD  PTSUNNY   72  55  56 NW6       30.07S
BRIDGEPORT     FAIR      79  54  41 NW10      30.02S
MERIDEN        FAIR      78  53  41 NW12      30.02S
NEW HAVEN      CLOUDY    76  54  46 VRB7      30.02S
CHESTER        NOT AVBL
GROTON         PTSUNNY   77  62  59 SW12      30.00S
WILLIMANTIC    FAIR      77  54  44 W8        30.01F

 IN RI

CITY           SKY/WX    TMP DP  RH WIND       PRES   REMARKS
PROVIDENCE     PTSUNNY   79  55  43 NW14      29.99S
BLOCK ISLAND   FAIR      75  63  64 SW10      30.02S
WESTERLY       PTSUNNY   75  59  57 SW8       30.01S

 IN MA

CITY           SKY/WX    TMP DP  RH WIND       PRES   REMARKS
BOSTON         FAIR      78  55  44 NW13      29.96
WORCESTER      FAIR      72  53  51 W10       30.02S
WESTFIELD      FAIR      77  53  43 W12       30.01S
PROVINCETOWN   PTSUNNY   75  55  50 SW5       29.97S
NANTUCKET      FAIR      74  61  63 W15       29.99S
$$

ANZ330-335-338-340-345-350-353-355-272200-
COASTAL MARINE OBSERVATIONS


STATION/POSITION TIME  SKY/WX   TEMP    WIND        PRES    VSBY  WAVE
                                AIR SEA DIR/SP/G                  HT/PER
                 (UTC)          (F)     (DEG/KT/KT) (MB)    (MI)  (FT/S)
NY HARB ENTRANCE 1950            76 77  290/  8/ 10 1016.9          2/10
4S FIRE IS       NOT AVBL
20S FIRE ISLAND  1950            73 75  250/  6/  8 1017.0          2/10
GREAT SOUTH BAY  2015            76 76  200/ 10/ 14   N/A
23SW MTP         2050            72 73  250/ 10/ 12 1016.2          2/11
HUDSON CANYON    NOT AVBL
KINGS POINT      2000                    10/  7/ 11   N/A
EXECUTION ROCKS  2000            78     280/ 10/ 14   N/A
CENTRAL LI SOUND NOT AVBL
EASTERN LI SOUND 2000            74 71  260/ 14/ 17   N/A
ROBBINS REEF     2000                   300/ 12/ 14   N/A
$$


>>>>>>>>>>>>>>>>>>>>>>>>>>>> KEY <<<<<<<<<<<<<<<<<<<<<<<<<<<
>                                                          <
>     SKY/WX - SKY CONDITION/PRESENT WEATHER               <
>     TMP    - TEMPERATURE IN FAHRENHEIT                   <
>     DP     - DEWPOINT IN FAHRENHEIT                      <
>     RH     - RELATIVE HUMIDITY IN PERCENT                <
>     WIND   - DIRECTION AND SPEED IN MPH                  <
>     PRES   - MEAN SEA LEVEL PRESSURE IN INCHES OF HG     <
>     WCI    - WIND CHILL INDEX                            <
>     VSB    - VISIBILITY IN MILES                         <
>     HX     - HEAT INDEX                                  <
>     TC     - TEMPERATURE IN CELSIUS                      <
>     VRB    - VARIABLE WIND DIRECTION                     <
>                                                          <
>>>>>>>>>>>>>>>>>>>>>>>>>>>> KEY <<<<<<<<<<<<<<<<<<<<<<<<<<<




USA.gov is the U.S. government's official web portal to all federal, state and local government web resources and services.